• MPC Preparation (Info)

  • MPEC 2023-J48 : S/2006 S 11

    The following Minor Planet Electronic Circular may be linked-to from your own Web pages, but must not otherwise be redistributed electronically.

    A form allowing access to any MPEC is at the bottom of this page.


    Read MPEC 2023-J47 Read MPEC 2023-J49


    M.P.E.C. 2023-J48                                   Issued 2023 May 7, 03:02 UT
    
         The Minor Planet Electronic Circulars contain information on unusual
             minor planets, routine data on comets and natural satellites,
             and occasional editorial announcements.  They are published
        on behalf of Division F of the International Astronomical Union by the
              Minor Planet Center, Smithsonian Astrophysical Observatory,
                              Cambridge, MA 02138, U.S.A.
    			  
                 Prepared using the Tamkin Foundation Computer Network
    
                                  MPC@CFA.HARVARD.EDU
                URL https://www.minorplanetcenter.net/    ISSN 1523-6714
    
                                   S/2006 S 11                               
                               Satellite of Saturn                           
    
    
    Observations:
        SK06S110*5C2006 01 05.52950 08 45 27.059+18 38 57.67         25.8 RcEJ048568
        SK06S110 5C2006 01 05.57523 08 45 26.212+18 39 00.96               cEJ048568
        SK06S110 5C2006 02 01.32024 08 36 38.795+19 14 12.29         25.6 RcEJ048568
        SK06S110 5C2006 02 01.34459 08 36 38.254+19 14 14.40         25.4 RcEJ048568
        SK06S110 5C2006 02 02.28374 08 36 19.196+19 15 27.67               cEJ048568
        SK06S110 5C2006 02 02.30664 08 36 18.742+19 15 29.35               cEJ048568
        SK06S110 5C2007 01 16.38087 09 47 17.746+14 37 11.76         25.7 RaEJ048568
        SK06S110 5C2007 01 16.40097 09 47 17.496+14 37 13.76               aEJ048568
        SK06S110 5C2007 01 16.41545 09 47 17.273+14 37 14.93         25.8 RaEJ048568
        SK06S110 5C2007 03 21.23882 09 29 48.710+16 11 12.86                EJ048568
        SK06S110 5C2007 03 21.25979 09 29 48.453+16 11 13.96         25.5 R EJ048568
        SK06S110 RC2019 07 03.38705 19 11 50.50 -21 57 58.5                cEJ048568
        SK06S110 RC2019 07 03.47288 19 11 48.91 -21 58 01.6          26.3 wcEJ048568
        SK06S110 4C2019 07 04.38694 19 11 32.18 -21 58 34.8                cEJ048T14
        SK06S110 4C2019 07 04.44997 19 11 31.03 -21 58 36.9                cEJ048T14
        SK06S110 4C2019 07 04.47006 19 11 30.67 -21 58 37.6          26.3 wcEJ048T14
        SK06S110 RC2020 06 24.46348 20 12 55.71 -20 12 53.9          26.3 wcEJ048568
        SK06S110 RC2020 06 24.49219 20 12 55.27 -20 12 55.5                cEJ048568
        SK06S110 RC2020 06 29.52346 20 11 36.90 -20 17 38.8                cEJ048568
        SK06S110 RC2020 06 29.54348 20 11 36.57 -20 17 40.0                cEJ048568
        SK06S110 RC2020 07 24.36175 20 04 14.39 -20 42 52.1          26.4 wcEJ048568
        SK06S110 RC2020 07 24.42460 20 04 13.23 -20 42 56.0          26.3 wcEJ048568
        SK06S110 4C2021 07 09.51738 20 54 08.73 -18 12 06.6                cEJ048T14
        SK06S110 4C2021 07 09.52602 20 54 08.60 -18 12 07.2          26.2 wcEJ048T14
        SK06S110 4C2021 07 09.54617 20 54 08.26 -18 12 08.8                cEJ048T14
    
    Observer details:
    568 Maunakea.  Observers S. S. Sheppard, D. C. Jewitt, J. Kleyna, E. J.
        Ashton, B. J. Gladman, J.-M. Petit, M. Alexandersen.  Measurers S. S.
        Sheppard, E. J. Ashton, M. Beaudoin, B. J. Gladman.  8.3-m Subaru
        Telescope + CCD, 8.2-m reflector + CCD, 3.5-m Canada-France-Hawaii
        Telescope + CCD.
    T14 Canada-France-Hawaii Telescope, Maunakea.  Observers E. J. Ashton, B. J.
        Gladman, J.-M. Petit, M. Alexandersen.  Measurer E. J. Ashton.  CFHT 3.5m
        + CCD.
    
    Orbital elements:
        S/2006 S 11                                                                 
    Epoch 2023 Feb. 25.0 TT = JDT 2460000.5                 Alexandersen            
    M  19.31474              (2000.0)            P               Q                  
    n   0.35347740     Peri.  186.46810     +0.16264915     +0.97693976             
    a   0.1305046      Node   267.04443     +0.91135821     -0.09502418             
    e   0.1367366      Incl.  172.03838     +0.37811568     -0.19120435             
    P   2.79           H   16.5           P/d  1018.45                              
    From 25 observations 2006 Jan. 05-2021 Jul. 09, mean residual 0".14             
    
    Residuals in seconds of arc
    060105 568  0.1+  0.5+    070321 568  0.1-  0.6-    200629 568  0.2+  0.1+
    060105 568  0.1-  0.4+    070321 568  0.2-  0.7-    200629 568  0.2+  0.0
    060201 568  0.3+  0.2-    190703 568  0.1-  0.3-    200724 568  0.2-  0.2-
    060201 568  0.2-  0.0     190703 568  0.0   0.2-    200724 568  0.3+  0.2-
    060202 568  0.5-  0.2+    190704 T14  0.5-  0.1-    210709 T14  0.2-  0.2+
    060202 568  0.2-  0.0     190704 T14  0.1-  0.1+    210709 T14  0.0   0.2+
    070116 568  0.4-  0.3+    190704 T14  0.1+  0.1+    210709 T14  0.1-  0.0
    070116 568  0.3+  0.5+    200624 568  0.2-  0.4-
    070116 568  0.2+  0.4+    200624 568  0.2-  0.4-
    
    
    M. P. C. Staff               (C) Copyright 2023 MPC           M.P.E.C. 2023-J48
    


    Read MPEC 2023-J47 Read MPEC 2023-J49


    MPEC number:

    Enter an MPEC number in one of the following forms:

    • 1997-B01 (the full form)
    • J97B01 (the packed version of the full form)
    • B01 (the abbreviated form)